sat.trackr.live / text

‹ back to catalog

BLACKJACK ACES-3

NORAD 56950 · 2023-084U

PAYLOAD ACTIVE UNKNOWN

§ Identity

Operator
Country
US
Launch date
2023-06-12
Launch site
AFWTR
Launch vehicle
Mass (kg)
RCS (m²)

External: N2YO · Heavens-Above · Gunter

§ Orbital elements

Epoch: 2026-09-21T21:19:39.633888Z

Period
94.81 min
Inclination
97.6335°
Eccentricity
0.0002550
Mean motion
15.18759360 rev/d
Perigee alt
507.8 km
Apogee alt
511.3 km
Semi-major
6,887.7 km
B*
1.6042e-4
RAAN
40.9322°
Arg perigee
75.1821°
Mean anomaly
284.9695°
Rev number
18,184

§ Raw data

BLACKJACK ACES-31 56950U 23084U   26264.88865317  .00003263  00000+0  16042-3 0  99972 56950  97.6335  40.9322 0002550  75.1821 284.9695 15.18759360181846

JSON: /api/v1/satellites/56950 · /tle

For live sub-satellite position, see the globe view (requires WebGL).

§ Visibility from observer

Set your observer location to see the next 7 days of passes ≥ 10°. The values pass through the URL so the page stays shareable.

No JS? Fill the form by hand. The geolocation button needs JavaScript.

§ Radio — SatNOGS DB

ModeDescriptionDownlinkUplink
BPSK S-band telemetry 2.265 GHz

1 transmitter · refreshed weekly from db.satnogs.org